Location: Chester
(43.2647°N, 72.5958°W)
Time: 17:18:41
(UTC-05:00)

N. Korean satellite - Visible Passes

Search period start: 09 December 2018 00:00
Search period end: 19 December 2018 00:00
Orbit: 456 x 511 km, 97.2° (Epoch: 08 December)

Date Brightness Start Highest point End Pass type
(mag) Time Alt. Az. Time Alt. Az. Time Alt. Az.
09 Dec 6.4 06:18:03 10° N 06:21:36 78° WNW 06:25:09 10° SSW visible
09 Dec 6.8 16:54:56 10° SE 16:58:11 41° ENE 17:01:27 10° N visible
09 Dec 10.0 18:30:45 10° WSW 18:31:52 11° W 18:32:59 10° WNW visible
10 Dec 7.6 05:53:35 10° NNE 05:57:01 48° E 06:00:30 10° S visible
10 Dec 9.1 18:04:22 10° SSW 18:07:07 22° W 18:09:52 10° NW visible
11 Dec 9.1 05:29:27 10° NE 05:32:22 24° E 05:35:20 10° SSE visible
11 Dec 7.6 17:39:09 10° S 17:42:27 46° W 17:45:47 10° NNW visible
12 Dec 10.0 05:06:06 10° ENE 05:07:39 12° E 05:09:13 10° ESE visible
12 Dec 6.9 06:37:55 10° N 06:41:18 41° WNW 06:44:42 10° SW visible
12 Dec 6.3 17:14:27 10° SSE 17:17:52 79° ENE 17:21:20 10° N visible
13 Dec 6.5 06:13:12 10° NNE 06:16:47 89° WNW 06:20:24 10° SSW visible
13 Dec 7.0 16:50:13 10° SE 16:53:22 36° ENE 16:56:33 10° N visible
13 Dec 9.9 18:25:23 10° WSW 18:26:59 13° W 18:28:37 10° WNW visible
14 Dec 7.9 05:48:46 10° NNE 05:52:12 42° E 05:55:39 10° S visible
14 Dec 8.9 17:59:21 10° SSW 18:02:15 25° W 18:05:09 10° NW visible
15 Dec 9.3 05:24:42 10° NE 05:27:31 21° E 05:30:21 10° SE visible
15 Dec 7.3 17:34:14 10° S 17:37:35 53° W 17:40:58 10° NNW visible
16 Dec 10.1 05:01:41 10° ENE 05:02:46 11° E 05:03:52 10° ESE visible
16 Dec 6.8 06:33:00 10° N 06:36:28 48° WNW 06:39:58 10° SSW visible
16 Dec 6.4 17:09:37 10° SSE 17:13:00 68° ENE 17:16:27 10° N visible
17 Dec 6.7 06:08:19 10° NNE 06:11:56 80° ESE 06:15:35 10° S visible
17 Dec 7.2 16:45:26 10° SE 16:48:31 31° ENE 16:51:36 10° N visible
17 Dec 9.8 18:20:06 10° SW 18:22:04 15° W 18:24:04 10° WNW visible
18 Dec 8.2 05:43:56 10° NNE 05:47:19 37° E 05:50:44 10° SSE visible
18 Dec 8.6 17:54:19 10° SSW 17:57:19 29° W 18:00:22 10° NW visible
